<?xml version="1.0" encoding="UTF-8" standalone="no" ?>
<gpx xmlns="http://www.topografix.com/GPX/1/1" xmlns:xsi="http://www.w3.org/2001/XMLSchema-instance" xsi:schemaLocation="http://www.topografix.com/GPX/1/1 http://www.topografix.com/GPX/1/1/gpx.xsd" version="1.1" creator="VisuGPX - https://www.visugpx.com">
  <metadata>
    <name> Avalats bellegarde</name>
  </metadata>
  <trk>
    <name><![CDATA[De Bellegarde aux Avalats]]></name>
    <extensions>
      <line xmlns="http://www.topografix.com/GPX/gpx_style/0/2">
        <color>0000FF</color>
        <width>4</width>
      </line>
    </extensions>
    <trkseg>
      <trkpt lat="43.91717" lon="2.26854">
        <ele>330</ele>
        <time>2018-01-17T20:42:36+01:00</time>
      </trkpt>
      <trkpt lat="43.91715" lon="2.26865">
        <ele>330</ele>
        <time>2018-01-17T20:42:36+01:00</time>
      </trkpt>
      <trkpt lat="43.91712" lon="2.26875">
        <ele>330</ele>
        <time>2018-01-17T20:42:36+01:00</time>
      </trkpt>
      <trkpt lat="43.91709" lon="2.26884">
        <ele>330</ele>
        <time>2018-01-17T20:42:36+01:00</time>
      </trkpt>
      <trkpt lat="43.91712" lon="2.26895">
        <ele>330</ele>
        <time>2018-01-17T20:42:36+01:00</time>
      </trkpt>
      <trkpt lat="43.91722" lon="2.26918">
        <ele>330</ele>
      </trkpt>
      <trkpt lat="43.91737" lon="2.26957">
        <ele>331</ele>
        <time>2018-01-17T20:42:36+01:00</time>
      </trkpt>
      <trkpt lat="43.91762" lon="2.27015">
        <ele>331</ele>
        <time>2018-01-17T20:42:36+01:00</time>
      </trkpt>
      <trkpt lat="43.91773" lon="2.27047">
        <ele>329</ele>
      </trkpt>
      <trkpt lat="43.91785" lon="2.27075">
        <ele>327</ele>
        <time>2018-01-17T20:42:36+01:00</time>
      </trkpt>
      <trkpt lat="43.91787" lon="2.27087">
        <ele>326</ele>
        <time>2018-01-17T20:42:36+01:00</time>
      </trkpt>
      <trkpt lat="43.91783" lon="2.27098">
        <ele>326</ele>
        <time>2018-01-17T20:42:36+01:00</time>
      </trkpt>
      <trkpt lat="43.91773" lon="2.27116">
        <ele>326</ele>
        <time>2018-01-17T20:42:36+01:00</time>
      </trkpt>
      <trkpt lat="43.9177" lon="2.27136">
        <ele>325</ele>
        <time>2018-01-17T20:42:36+01:00</time>
      </trkpt>
      <trkpt lat="43.9177" lon="2.27157">
        <ele>324</ele>
        <time>2018-01-17T20:42:36+01:00</time>
      </trkpt>
      <trkpt lat="43.91778" lon="2.27181">
        <ele>323</ele>
        <time>2018-01-17T20:42:36+01:00</time>
      </trkpt>
      <trkpt lat="43.91792" lon="2.27203">
        <ele>322</ele>
        <time>2018-01-17T20:42:36+01:00</time>
      </trkpt>
      <trkpt lat="43.91804" lon="2.27236">
        <ele>322</ele>
        <time>2018-01-17T20:42:36+01:00</time>
      </trkpt>
      <trkpt lat="43.91812" lon="2.27257">
        <ele>322</ele>
      </trkpt>
      <trkpt lat="43.91819" lon="2.27284">
        <ele>321</ele>
      </trkpt>
      <trkpt lat="43.91826" lon="2.27312">
        <ele>321</ele>
      </trkpt>
      <trkpt lat="43.9183" lon="2.27342">
        <ele>320</ele>
        <time>2018-01-17T20:42:36+01:00</time>
      </trkpt>
      <trkpt lat="43.91832" lon="2.27364">
        <ele>320</ele>
      </trkpt>
      <trkpt lat="43.91836" lon="2.27393">
        <ele>320</ele>
        <time>2018-01-17T20:42:36+01:00</time>
      </trkpt>
      <trkpt lat="43.91836" lon="2.27424">
        <ele>320</ele>
        <time>2018-01-17T20:42:36+01:00</time>
      </trkpt>
      <trkpt lat="43.91842" lon="2.27434">
        <ele>320</ele>
        <time>2018-01-17T20:42:36+01:00</time>
      </trkpt>
      <trkpt lat="43.91847" lon="2.27439">
        <ele>320</ele>
        <time>2018-01-17T20:42:36+01:00</time>
      </trkpt>
      <trkpt lat="43.91846" lon="2.27455">
        <ele>321</ele>
      </trkpt>
      <trkpt lat="43.91851" lon="2.27476">
        <ele>321</ele>
        <time>2018-01-17T20:42:36+01:00</time>
      </trkpt>
      <trkpt lat="43.9186" lon="2.27547">
        <ele>325</ele>
        <time>2018-01-17T20:42:36+01:00</time>
      </trkpt>
      <trkpt lat="43.91863" lon="2.27563">
        <ele>326</ele>
      </trkpt>
      <trkpt lat="43.91869" lon="2.27581">
        <ele>328</ele>
        <time>2018-01-17T20:42:36+01:00</time>
      </trkpt>
      <trkpt lat="43.91883" lon="2.27598">
        <ele>331</ele>
        <time>2018-01-17T20:42:36+01:00</time>
      </trkpt>
      <trkpt lat="43.91888" lon="2.27605">
        <ele>332</ele>
        <time>2018-01-17T20:42:36+01:00</time>
      </trkpt>
      <trkpt lat="43.91896" lon="2.27611">
        <ele>334</ele>
        <time>2018-01-17T20:42:36+01:00</time>
      </trkpt>
      <trkpt lat="43.9191" lon="2.27628">
        <ele>337</ele>
        <time>2018-01-17T20:42:36+01:00</time>
      </trkpt>
      <trkpt lat="43.91922" lon="2.27639">
        <ele>339</ele>
      </trkpt>
      <trkpt lat="43.91938" lon="2.27654">
        <ele>340</ele>
        <time>2018-01-17T20:42:36+01:00</time>
      </trkpt>
      <trkpt lat="43.91954" lon="2.27679">
        <ele>341</ele>
        <time>2018-01-17T20:42:36+01:00</time>
      </trkpt>
      <trkpt lat="43.91968" lon="2.27723">
        <ele>341</ele>
        <time>2018-01-17T20:42:36+01:00</time>
      </trkpt>
      <trkpt lat="43.91975" lon="2.27757">
        <ele>342</ele>
        <time>2018-01-17T20:42:36+01:00</time>
      </trkpt>
      <trkpt lat="43.91979" lon="2.27772">
        <ele>343</ele>
        <time>2018-01-17T20:42:36+01:00</time>
      </trkpt>
      <trkpt lat="43.91986" lon="2.27794">
        <ele>344</ele>
      </trkpt>
      <trkpt lat="43.91996" lon="2.27825">
        <ele>346</ele>
        <time>2018-01-17T20:42:36+01:00</time>
      </trkpt>
      <trkpt lat="43.92011" lon="2.27864">
        <ele>347</ele>
        <time>2018-01-17T20:42:36+01:00</time>
      </trkpt>
      <trkpt lat="43.92015" lon="2.2788">
        <ele>347</ele>
        <time>2018-01-17T20:42:36+01:00</time>
      </trkpt>
      <trkpt lat="43.9203" lon="2.2792">
        <ele>348</ele>
        <time>2018-01-17T20:42:36+01:00</time>
      </trkpt>
      <trkpt lat="43.92047" lon="2.27958">
        <ele>348</ele>
      </trkpt>
      <trkpt lat="43.92061" lon="2.27983">
        <ele>347</ele>
      </trkpt>
      <trkpt lat="43.9207" lon="2.28">
        <ele>348</ele>
        <time>2018-01-17T20:42:36+01:00</time>
      </trkpt>
      <trkpt lat="43.92082" lon="2.28005">
        <ele>347</ele>
        <time>2018-01-17T20:42:36+01:00</time>
      </trkpt>
      <trkpt lat="43.92119" lon="2.28017">
        <ele>348</ele>
        <time>2018-01-17T20:42:36+01:00</time>
      </trkpt>
      <trkpt lat="43.92149" lon="2.28031">
        <ele>348</ele>
      </trkpt>
      <trkpt lat="43.92182" lon="2.28046">
        <ele>348</ele>
        <time>2018-01-17T20:42:36+01:00</time>
      </trkpt>
      <trkpt lat="43.9222" lon="2.28062">
        <ele>348</ele>
        <time>2018-01-17T20:42:36+01:00</time>
      </trkpt>
      <trkpt lat="43.92255" lon="2.28075">
        <ele>348</ele>
        <time>2018-01-17T20:42:36+01:00</time>
      </trkpt>
      <trkpt lat="43.92279" lon="2.28082">
        <ele>348</ele>
        <time>2018-01-17T20:42:36+01:00</time>
      </trkpt>
      <trkpt lat="43.92292" lon="2.28097">
        <ele>348</ele>
        <time>2018-01-17T20:42:36+01:00</time>
      </trkpt>
      <trkpt lat="43.92307" lon="2.28117">
        <ele>347</ele>
        <time>2018-01-17T20:42:36+01:00</time>
      </trkpt>
      <trkpt lat="43.92315" lon="2.28133">
        <ele>347</ele>
        <time>2018-01-17T20:42:36+01:00</time>
      </trkpt>
      <trkpt lat="43.92319" lon="2.28149">
        <ele>347</ele>
        <time>2018-01-17T20:42:36+01:00</time>
      </trkpt>
      <trkpt lat="43.92319" lon="2.28165">
        <ele>347</ele>
        <time>2018-01-17T20:42:36+01:00</time>
      </trkpt>
      <trkpt lat="43.92319" lon="2.28182">
        <ele>347</ele>
        <time>2018-01-17T20:42:36+01:00</time>
      </trkpt>
      <trkpt lat="43.92317" lon="2.28205">
        <ele>346</ele>
        <time>2018-01-17T20:42:36+01:00</time>
      </trkpt>
      <trkpt lat="43.92314" lon="2.28242">
        <ele>345</ele>
        <time>2018-01-17T20:42:36+01:00</time>
      </trkpt>
      <trkpt lat="43.92312" lon="2.28281">
        <ele>345</ele>
      </trkpt>
      <trkpt lat="43.92309" lon="2.2832">
        <ele>344</ele>
        <time>2018-01-17T20:42:36+01:00</time>
      </trkpt>
      <trkpt lat="43.92308" lon="2.28344">
        <ele>344</ele>
        <time>2018-01-17T20:42:36+01:00</time>
      </trkpt>
      <trkpt lat="43.92307" lon="2.28364">
        <ele>343</ele>
        <time>2018-01-17T20:42:36+01:00</time>
      </trkpt>
      <trkpt lat="43.92307" lon="2.28389">
        <ele>342</ele>
        <time>2018-01-17T20:42:36+01:00</time>
      </trkpt>
      <trkpt lat="43.92306" lon="2.28405">
        <ele>341</ele>
      </trkpt>
      <trkpt lat="43.92308" lon="2.28413">
        <ele>341</ele>
        <time>2018-01-17T20:42:36+01:00</time>
      </trkpt>
      <trkpt lat="43.92322" lon="2.28419">
        <ele>342</ele>
        <time>2018-01-17T20:42:36+01:00</time>
      </trkpt>
      <trkpt lat="43.92331" lon="2.28426">
        <ele>343</ele>
        <time>2018-01-17T20:42:36+01:00</time>
      </trkpt>
      <trkpt lat="43.92343" lon="2.2843">
        <ele>341</ele>
      </trkpt>
      <trkpt lat="43.92353" lon="2.2843">
        <ele>339</ele>
        <time>2018-01-17T20:42:36+01:00</time>
      </trkpt>
      <trkpt lat="43.92365" lon="2.28429">
        <ele>337</ele>
        <time>2018-01-17T20:42:36+01:00</time>
      </trkpt>
      <trkpt lat="43.92373" lon="2.28422">
        <ele>336</ele>
      </trkpt>
      <trkpt lat="43.9238" lon="2.28416">
        <ele>335</ele>
      </trkpt>
      <trkpt lat="43.92387" lon="2.28415">
        <ele>334</ele>
        <time>2018-01-17T20:42:36+01:00</time>
      </trkpt>
      <trkpt lat="43.92391" lon="2.28427">
        <ele>332</ele>
        <time>2018-01-17T20:42:36+01:00</time>
      </trkpt>
      <trkpt lat="43.92393" lon="2.28434">
        <ele>332</ele>
      </trkpt>
      <trkpt lat="43.92395" lon="2.28446">
        <ele>331</ele>
        <time>2018-01-17T20:42:36+01:00</time>
      </trkpt>
      <trkpt lat="43.92407" lon="2.28446">
        <ele>329</ele>
        <time>2018-01-17T20:42:36+01:00</time>
      </trkpt>
      <trkpt lat="43.92419" lon="2.28437">
        <ele>327</ele>
        <time>2018-01-17T20:42:36+01:00</time>
      </trkpt>
      <trkpt lat="43.92427" lon="2.28421">
        <ele>325</ele>
      </trkpt>
      <trkpt lat="43.92438" lon="2.28406">
        <ele>323</ele>
        <time>2018-01-17T20:42:36+01:00</time>
      </trkpt>
      <trkpt lat="43.9245" lon="2.28396">
        <ele>321</ele>
      </trkpt>
      <trkpt lat="43.92458" lon="2.28389">
        <ele>320</ele>
        <time>2018-01-17T20:42:36+01:00</time>
      </trkpt>
      <trkpt lat="43.92469" lon="2.28378">
        <ele>318</ele>
        <time>2018-01-17T20:42:36+01:00</time>
      </trkpt>
      <trkpt lat="43.92481" lon="2.2837">
        <ele>316</ele>
      </trkpt>
      <trkpt lat="43.92494" lon="2.28358">
        <ele>314</ele>
        <time>2018-01-17T20:42:36+01:00</time>
      </trkpt>
      <trkpt lat="43.92503" lon="2.28346">
        <ele>313</ele>
        <time>2018-01-17T20:42:36+01:00</time>
      </trkpt>
      <trkpt lat="43.92508" lon="2.28335">
        <ele>313</ele>
        <time>2018-01-17T20:42:36+01:00</time>
      </trkpt>
      <trkpt lat="43.92506" lon="2.28327">
        <ele>314</ele>
      </trkpt>
      <trkpt lat="43.92501" lon="2.28322">
        <ele>316</ele>
        <time>2018-01-17T20:42:36+01:00</time>
      </trkpt>
      <trkpt lat="43.92491" lon="2.28319">
        <ele>318</ele>
        <time>2018-01-17T20:42:36+01:00</time>
      </trkpt>
      <trkpt lat="43.92489" lon="2.28308">
        <ele>319</ele>
        <time>2018-01-17T20:42:36+01:00</time>
      </trkpt>
      <trkpt lat="43.9249" lon="2.28287">
        <ele>321</ele>
      </trkpt>
      <trkpt lat="43.92489" lon="2.28271">
        <ele>322</ele>
        <time>2018-01-17T20:42:36+01:00</time>
      </trkpt>
      <trkpt lat="43.92488" lon="2.28255">
        <ele>323</ele>
      </trkpt>
      <trkpt lat="43.92485" lon="2.28235">
        <ele>325</ele>
        <time>2018-01-17T20:42:36+01:00</time>
      </trkpt>
      <trkpt lat="43.92482" lon="2.28218">
        <ele>327</ele>
        <time>2018-01-17T20:42:36+01:00</time>
      </trkpt>
      <trkpt lat="43.92481" lon="2.28202">
        <ele>329</ele>
        <time>2018-01-17T20:42:36+01:00</time>
      </trkpt>
      <trkpt lat="43.92484" lon="2.28188">
        <ele>330</ele>
        <time>2018-01-17T20:42:36+01:00</time>
      </trkpt>
      <trkpt lat="43.92491" lon="2.28187">
        <ele>328</ele>
        <time>2018-01-17T20:42:36+01:00</time>
      </trkpt>
      <trkpt lat="43.92501" lon="2.28196">
        <ele>326</ele>
      </trkpt>
      <trkpt lat="43.9251" lon="2.28208">
        <ele>324</ele>
        <time>2018-01-17T20:42:36+01:00</time>
      </trkpt>
      <trkpt lat="43.92521" lon="2.28217">
        <ele>322</ele>
        <time>2018-01-17T20:42:37+01:00</time>
      </trkpt>
      <trkpt lat="43.92531" lon="2.2822">
        <ele>320</ele>
        <time>2018-01-17T20:42:37+01:00</time>
      </trkpt>
      <trkpt lat="43.92545" lon="2.28217">
        <ele>319</ele>
      </trkpt>
      <trkpt lat="43.92553" lon="2.28214">
        <ele>319</ele>
        <time>2018-01-17T20:42:37+01:00</time>
      </trkpt>
      <trkpt lat="43.92568" lon="2.2822">
        <ele>316</ele>
      </trkpt>
      <trkpt lat="43.92586" lon="2.28222">
        <ele>313</ele>
        <time>2018-01-17T20:42:37+01:00</time>
      </trkpt>
      <trkpt lat="43.92601" lon="2.28216">
        <ele>312</ele>
      </trkpt>
      <trkpt lat="43.92607" lon="2.28206">
        <ele>312</ele>
        <time>2018-01-17T20:42:37+01:00</time>
      </trkpt>
      <trkpt lat="43.92609" lon="2.28192">
        <ele>315</ele>
        <time>2018-01-17T20:42:37+01:00</time>
      </trkpt>
      <trkpt lat="43.92607" lon="2.28176">
        <ele>318</ele>
        <time>2018-01-17T20:42:37+01:00</time>
      </trkpt>
      <trkpt lat="43.92609" lon="2.28151">
        <ele>321</ele>
        <time>2018-01-17T20:42:37+01:00</time>
      </trkpt>
      <trkpt lat="43.92613" lon="2.28129">
        <ele>323</ele>
        <time>2018-01-17T20:42:37+01:00</time>
      </trkpt>
      <trkpt lat="43.92617" lon="2.28115">
        <ele>324</ele>
        <time>2018-01-17T20:42:37+01:00</time>
      </trkpt>
      <trkpt lat="43.92621" lon="2.28086">
        <ele>327</ele>
        <time>2018-01-17T20:42:37+01:00</time>
      </trkpt>
      <trkpt lat="43.92631" lon="2.2806">
        <ele>328</ele>
      </trkpt>
      <trkpt lat="43.9265" lon="2.28049">
        <ele>326</ele>
        <time>2018-01-17T20:42:37+01:00</time>
      </trkpt>
      <trkpt lat="43.92664" lon="2.2802">
        <ele>328</ele>
        <time>2018-01-17T20:42:37+01:00</time>
      </trkpt>
      <trkpt lat="43.92679" lon="2.28004">
        <ele>331</ele>
        <time>2018-01-17T20:42:37+01:00</time>
      </trkpt>
      <trkpt lat="43.9268" lon="2.27995">
        <ele>332</ele>
        <time>2018-01-17T20:42:37+01:00</time>
      </trkpt>
      <trkpt lat="43.92678" lon="2.27964">
        <ele>335</ele>
        <time>2018-01-17T20:42:37+01:00</time>
      </trkpt>
      <trkpt lat="43.92675" lon="2.27919">
        <ele>339</ele>
        <time>2018-01-17T20:42:37+01:00</time>
      </trkpt>
      <trkpt lat="43.92661" lon="2.27911">
        <ele>339</ele>
      </trkpt>
      <trkpt lat="43.92661" lon="2.27898">
        <ele>339</ele>
        <time>2018-01-17T20:42:37+01:00</time>
      </trkpt>
      <trkpt lat="43.92651" lon="2.27845">
        <ele>337</ele>
        <time>2018-01-17T20:42:37+01:00</time>
      </trkpt>
      <trkpt lat="43.92643" lon="2.27818">
        <ele>337</ele>
      </trkpt>
      <trkpt lat="43.92634" lon="2.27778">
        <ele>337</ele>
        <time>2018-01-17T20:42:37+01:00</time>
      </trkpt>
      <trkpt lat="43.92633" lon="2.27763">
        <ele>337</ele>
        <time>2018-01-17T20:42:37+01:00</time>
      </trkpt>
      <trkpt lat="43.92633" lon="2.27729">
        <ele>337</ele>
        <time>2018-01-17T20:42:37+01:00</time>
      </trkpt>
      <trkpt lat="43.9263" lon="2.27698">
        <ele>338</ele>
        <time>2018-01-17T20:42:37+01:00</time>
      </trkpt>
      <trkpt lat="43.92626" lon="2.27666">
        <ele>338</ele>
        <time>2018-01-17T20:42:37+01:00</time>
      </trkpt>
      <trkpt lat="43.9262" lon="2.27629">
        <ele>338</ele>
        <time>2018-01-17T20:42:37+01:00</time>
      </trkpt>
      <trkpt lat="43.92613" lon="2.27598">
        <ele>338</ele>
      </trkpt>
      <trkpt lat="43.92607" lon="2.27583">
        <ele>338</ele>
      </trkpt>
      <trkpt lat="43.92596" lon="2.27566">
        <ele>338</ele>
        <time>2018-01-17T20:42:37+01:00</time>
      </trkpt>
      <trkpt lat="43.92591" lon="2.27553">
        <ele>338</ele>
        <time>2018-01-17T20:42:37+01:00</time>
      </trkpt>
      <trkpt lat="43.92577" lon="2.27533">
        <ele>337</ele>
        <time>2018-01-17T20:42:37+01:00</time>
      </trkpt>
      <trkpt lat="43.92565" lon="2.27515">
        <ele>337</ele>
        <time>2018-01-17T20:42:37+01:00</time>
      </trkpt>
      <trkpt lat="43.92555" lon="2.27491">
        <ele>337</ele>
      </trkpt>
      <trkpt lat="43.92546" lon="2.2749">
        <ele>337</ele>
        <time>2018-01-17T20:42:37+01:00</time>
      </trkpt>
      <trkpt lat="43.92535" lon="2.27484">
        <ele>336</ele>
        <time>2018-01-17T20:42:37+01:00</time>
      </trkpt>
      <trkpt lat="43.92534" lon="2.27468">
        <ele>336</ele>
        <time>2018-01-17T20:42:37+01:00</time>
      </trkpt>
      <trkpt lat="43.92538" lon="2.27451">
        <ele>335</ele>
        <time>2018-01-17T20:42:37+01:00</time>
      </trkpt>
      <trkpt lat="43.9254" lon="2.27431">
        <ele>335</ele>
        <time>2018-01-17T20:42:37+01:00</time>
      </trkpt>
      <trkpt lat="43.92542" lon="2.27376">
        <ele>333</ele>
        <time>2018-01-17T20:42:37+01:00</time>
      </trkpt>
      <trkpt lat="43.92549" lon="2.27342">
        <ele>331</ele>
        <time>2018-01-17T20:42:37+01:00</time>
      </trkpt>
      <trkpt lat="43.9256" lon="2.27313">
        <ele>329</ele>
        <time>2018-01-17T20:42:37+01:00</time>
      </trkpt>
      <trkpt lat="43.92568" lon="2.27283">
        <ele>328</ele>
        <time>2018-01-17T20:42:37+01:00</time>
      </trkpt>
      <trkpt lat="43.92574" lon="2.2723">
        <ele>325</ele>
        <time>2018-01-17T20:42:37+01:00</time>
      </trkpt>
      <trkpt lat="43.92572" lon="2.27208">
        <ele>325</ele>
        <time>2018-01-17T20:42:37+01:00</time>
      </trkpt>
      <trkpt lat="43.92571" lon="2.2717">
        <ele>325</ele>
        <time>2018-01-17T20:42:37+01:00</time>
      </trkpt>
      <trkpt lat="43.92572" lon="2.27156">
        <ele>324</ele>
        <time>2018-01-17T20:42:37+01:00</time>
      </trkpt>
      <trkpt lat="43.92578" lon="2.27125">
        <ele>323</ele>
        <time>2018-01-17T20:42:37+01:00</time>
      </trkpt>
      <trkpt lat="43.92584" lon="2.27108">
        <ele>323</ele>
        <time>2018-01-17T20:42:37+01:00</time>
      </trkpt>
      <trkpt lat="43.92601" lon="2.27065">
        <ele>321</ele>
        <time>2018-01-17T20:42:37+01:00</time>
      </trkpt>
      <trkpt lat="43.92605" lon="2.27048">
        <ele>321</ele>
        <time>2018-01-17T20:42:37+01:00</time>
      </trkpt>
      <trkpt lat="43.92615" lon="2.27018">
        <ele>319</ele>
        <time>2018-01-17T20:42:37+01:00</time>
      </trkpt>
      <trkpt lat="43.92619" lon="2.26994">
        <ele>319</ele>
        <time>2018-01-17T20:42:37+01:00</time>
      </trkpt>
      <trkpt lat="43.92642" lon="2.26968">
        <ele>316</ele>
        <time>2018-01-17T20:42:37+01:00</time>
      </trkpt>
      <trkpt lat="43.92654" lon="2.26945">
        <ele>315</ele>
      </trkpt>
      <trkpt lat="43.92671" lon="2.26923">
        <ele>314</ele>
        <time>2018-01-17T20:42:37+01:00</time>
      </trkpt>
      <trkpt lat="43.92678" lon="2.26907">
        <ele>313</ele>
        <time>2018-01-17T20:42:37+01:00</time>
      </trkpt>
      <trkpt lat="43.92687" lon="2.26893">
        <ele>312</ele>
        <time>2018-01-17T20:42:37+01:00</time>
      </trkpt>
      <trkpt lat="43.92694" lon="2.26878">
        <ele>311</ele>
        <time>2018-01-17T20:42:37+01:00</time>
      </trkpt>
      <trkpt lat="43.92708" lon="2.26856">
        <ele>309</ele>
      </trkpt>
      <trkpt lat="43.92719" lon="2.26835">
        <ele>308</ele>
        <time>2018-01-17T20:42:37+01:00</time>
      </trkpt>
      <trkpt lat="43.92726" lon="2.26818">
        <ele>307</ele>
        <time>2018-01-17T20:42:37+01:00</time>
      </trkpt>
      <trkpt lat="43.92735" lon="2.26804">
        <ele>306</ele>
        <time>2018-01-17T20:42:37+01:00</time>
      </trkpt>
      <trkpt lat="43.92745" lon="2.26771">
        <ele>305</ele>
        <time>2018-01-17T20:42:37+01:00</time>
      </trkpt>
      <trkpt lat="43.92758" lon="2.26719">
        <ele>304</ele>
        <time>2018-01-17T20:42:37+01:00</time>
      </trkpt>
      <trkpt lat="43.92764" lon="2.26705">
        <ele>304</ele>
        <time>2018-01-17T20:42:37+01:00</time>
      </trkpt>
      <trkpt lat="43.92783" lon="2.26645">
        <ele>303</ele>
        <time>2018-01-17T20:42:37+01:00</time>
      </trkpt>
      <trkpt lat="43.92803" lon="2.26597">
        <ele>304</ele>
        <time>2018-01-17T20:42:37+01:00</time>
      </trkpt>
      <trkpt lat="43.92834" lon="2.26559">
        <ele>305</ele>
        <time>2018-01-17T20:42:37+01:00</time>
      </trkpt>
      <trkpt lat="43.92847" lon="2.26534">
        <ele>303</ele>
      </trkpt>
      <trkpt lat="43.92865" lon="2.26514">
        <ele>301</ele>
        <time>2018-01-17T20:42:37+01:00</time>
      </trkpt>
      <trkpt lat="43.92874" lon="2.26504">
        <ele>300</ele>
        <time>2018-01-17T20:42:37+01:00</time>
      </trkpt>
      <trkpt lat="43.92886" lon="2.26483">
        <ele>300</ele>
      </trkpt>
      <trkpt lat="43.9291" lon="2.26446">
        <ele>299</ele>
        <time>2018-01-17T20:42:37+01:00</time>
      </trkpt>
      <trkpt lat="43.92917" lon="2.2643">
        <ele>300</ele>
        <time>2018-01-17T20:42:37+01:00</time>
      </trkpt>
      <trkpt lat="43.92921" lon="2.26411">
        <ele>299</ele>
        <time>2018-01-17T20:42:37+01:00</time>
      </trkpt>
      <trkpt lat="43.92922" lon="2.26393">
        <ele>297</ele>
        <time>2018-01-17T20:42:37+01:00</time>
      </trkpt>
      <trkpt lat="43.9292" lon="2.26339">
        <ele>293</ele>
        <time>2018-01-17T20:42:37+01:00</time>
      </trkpt>
      <trkpt lat="43.92913" lon="2.26326">
        <ele>292</ele>
        <time>2018-01-17T20:42:37+01:00</time>
      </trkpt>
      <trkpt lat="43.92901" lon="2.26291">
        <ele>289</ele>
      </trkpt>
      <trkpt lat="43.92892" lon="2.26266">
        <ele>287</ele>
        <time>2018-01-17T20:42:37+01:00</time>
      </trkpt>
      <trkpt lat="43.92883" lon="2.26233">
        <ele>283</ele>
        <time>2018-01-17T20:42:37+01:00</time>
      </trkpt>
      <trkpt lat="43.92881" lon="2.26204">
        <ele>278</ele>
      </trkpt>
      <trkpt lat="43.92879" lon="2.26171">
        <ele>272</ele>
        <time>2018-01-17T20:42:37+01:00</time>
      </trkpt>
      <trkpt lat="43.92884" lon="2.26156">
        <ele>268</ele>
        <time>2018-01-17T20:42:37+01:00</time>
      </trkpt>
      <trkpt lat="43.92894" lon="2.26145">
        <ele>265</ele>
        <time>2018-01-17T20:42:37+01:00</time>
      </trkpt>
      <trkpt lat="43.92902" lon="2.2614">
        <ele>263</ele>
        <time>2018-01-17T20:42:37+01:00</time>
      </trkpt>
      <trkpt lat="43.92908" lon="2.26146">
        <ele>265</ele>
        <time>2018-01-17T20:42:37+01:00</time>
      </trkpt>
      <trkpt lat="43.92905" lon="2.26179">
        <ele>272</ele>
        <time>2018-01-17T20:42:37+01:00</time>
      </trkpt>
      <trkpt lat="43.92911" lon="2.26193">
        <ele>273</ele>
        <time>2018-01-17T20:42:37+01:00</time>
      </trkpt>
      <trkpt lat="43.92928" lon="2.26217">
        <ele>271</ele>
        <time>2018-01-17T20:42:37+01:00</time>
      </trkpt>
      <trkpt lat="43.92944" lon="2.26235">
        <ele>268</ele>
      </trkpt>
      <trkpt lat="43.92969" lon="2.2625">
        <ele>260</ele>
        <time>2018-01-17T20:42:37+01:00</time>
      </trkpt>
      <trkpt lat="43.9299" lon="2.26264">
        <ele>255</ele>
      </trkpt>
      <trkpt lat="43.93003" lon="2.26277">
        <ele>252</ele>
      </trkpt>
      <trkpt lat="43.93021" lon="2.26289">
        <ele>244</ele>
        <time>2018-01-17T20:42:37+01:00</time>
      </trkpt>
      <trkpt lat="43.93029" lon="2.26298">
        <ele>242</ele>
      </trkpt>
      <trkpt lat="43.93042" lon="2.26299">
        <ele>234</ele>
        <time>2018-01-17T20:42:37+01:00</time>
      </trkpt>
      <trkpt lat="43.93031" lon="2.2627">
        <ele>235</ele>
        <time>2018-01-17T20:42:37+01:00</time>
      </trkpt>
      <trkpt lat="43.93023" lon="2.26253">
        <ele>237</ele>
        <time>2018-01-17T20:42:37+01:00</time>
      </trkpt>
      <trkpt lat="43.93014" lon="2.26237">
        <ele>238</ele>
      </trkpt>
      <trkpt lat="43.93004" lon="2.26226">
        <ele>242</ele>
        <time>2018-01-17T20:42:37+01:00</time>
      </trkpt>
      <trkpt lat="43.92997" lon="2.26212">
        <ele>243</ele>
        <time>2018-01-17T20:42:37+01:00</time>
      </trkpt>
      <trkpt lat="43.92996" lon="2.26197">
        <ele>240</ele>
        <time>2018-01-17T20:42:37+01:00</time>
      </trkpt>
      <trkpt lat="43.93002" lon="2.26183">
        <ele>235</ele>
        <time>2018-01-17T20:42:37+01:00</time>
      </trkpt>
      <trkpt lat="43.93012" lon="2.26168">
        <ele>228</ele>
        <time>2018-01-17T20:42:37+01:00</time>
      </trkpt>
      <trkpt lat="43.93026" lon="2.26149">
        <ele>221</ele>
        <time>2018-01-17T20:42:37+01:00</time>
      </trkpt>
      <trkpt lat="43.93037" lon="2.26142">
        <ele>217</ele>
        <time>2018-01-17T20:42:37+01:00</time>
      </trkpt>
      <trkpt lat="43.93043" lon="2.2613">
        <ele>214</ele>
        <time>2018-01-17T20:42:37+01:00</time>
      </trkpt>
      <trkpt lat="43.9304" lon="2.26114">
        <ele>214</ele>
        <time>2018-01-17T20:42:37+01:00</time>
      </trkpt>
      <trkpt lat="43.93044" lon="2.26095">
        <ele>212</ele>
        <time>2018-01-17T20:42:37+01:00</time>
      </trkpt>
      <trkpt lat="43.93045" lon="2.26082">
        <ele>211</ele>
        <time>2018-01-17T20:42:37+01:00</time>
      </trkpt>
      <trkpt lat="43.93042" lon="2.26064">
        <ele>211</ele>
        <time>2018-01-17T20:42:37+01:00</time>
      </trkpt>
      <trkpt lat="43.93039" lon="2.26052">
        <ele>211</ele>
        <time>2018-01-17T20:42:37+01:00</time>
      </trkpt>
      <trkpt lat="43.93033" lon="2.2604">
        <ele>211</ele>
        <time>2018-01-17T20:42:37+01:00</time>
      </trkpt>
      <trkpt lat="43.93039" lon="2.26025">
        <ele>207</ele>
      </trkpt>
      <trkpt lat="43.93039" lon="2.26009">
        <ele>205</ele>
        <time>2018-01-17T20:42:37+01:00</time>
      </trkpt>
      <trkpt lat="43.93038" lon="2.25987">
        <ele>203</ele>
      </trkpt>
      <trkpt lat="43.93037" lon="2.25962">
        <ele>199</ele>
      </trkpt>
      <trkpt lat="43.93033" lon="2.2594">
        <ele>196</ele>
        <time>2018-01-17T20:42:37+01:00</time>
      </trkpt>
      <trkpt lat="43.93031" lon="2.25924">
        <ele>193</ele>
        <time>2018-01-17T20:42:37+01:00</time>
      </trkpt>
      <trkpt lat="43.9303" lon="2.2591">
        <ele>192</ele>
        <time>2018-01-17T20:42:37+01:00</time>
      </trkpt>
      <trkpt lat="43.93026" lon="2.25879">
        <ele>193</ele>
      </trkpt>
      <trkpt lat="43.93024" lon="2.25867">
        <ele>194</ele>
      </trkpt>
      <trkpt lat="43.93019" lon="2.25852">
        <ele>195</ele>
        <time>2018-01-17T20:42:37+01:00</time>
      </trkpt>
      <trkpt lat="43.93014" lon="2.25838">
        <ele>196</ele>
        <time>2018-01-17T20:42:37+01:00</time>
      </trkpt>
      <trkpt lat="43.93017" lon="2.25833">
        <ele>196</ele>
      </trkpt>
      <trkpt lat="43.93017" lon="2.25829">
        <ele>196</ele>
        <time>2018-01-17T20:42:37+01:00</time>
      </trkpt>
      <trkpt lat="43.93019" lon="2.25825">
        <ele>195</ele>
      </trkpt>
      <trkpt lat="43.93019" lon="2.2583">
        <ele>195</ele>
      </trkpt>
      <trkpt lat="43.93019" lon="2.25834">
        <ele>195</ele>
      </trkpt>
      <trkpt lat="43.93024" lon="2.25831">
        <ele>194</ele>
      </trkpt>
      <trkpt lat="43.93028" lon="2.2583">
        <ele>193</ele>
      </trkpt>
      <trkpt lat="43.93031" lon="2.25825">
        <ele>192</ele>
        <time>2018-01-17T20:42:37+01:00</time>
      </trkpt>
      <trkpt lat="43.93027" lon="2.25807">
        <ele>194</ele>
        <time>2018-01-17T20:42:37+01:00</time>
      </trkpt>
      <trkpt lat="43.93027" lon="2.25787">
        <ele>194</ele>
        <time>2018-01-17T20:42:37+01:00</time>
      </trkpt>
      <trkpt lat="43.93024" lon="2.25751">
        <ele>196</ele>
        <time>2018-01-17T20:42:37+01:00</time>
      </trkpt>
      <trkpt lat="43.93023" lon="2.25729">
        <ele>198</ele>
        <time>2018-01-17T20:42:37+01:00</time>
      </trkpt>
      <trkpt lat="43.93023" lon="2.25713">
        <ele>199</ele>
      </trkpt>
      <trkpt lat="43.93024" lon="2.25697">
        <ele>200</ele>
        <time>2018-01-17T20:42:37+01:00</time>
      </trkpt>
      <trkpt lat="43.93026" lon="2.25668">
        <ele>201</ele>
        <time>2018-01-17T20:42:37+01:00</time>
      </trkpt>
      <trkpt lat="43.93031" lon="2.25641">
        <ele>202</ele>
        <time>2018-01-17T20:42:37+01:00</time>
      </trkpt>
      <trkpt lat="43.93034" lon="2.25618">
        <ele>204</ele>
        <time>2018-01-17T20:42:37+01:00</time>
      </trkpt>
      <trkpt lat="43.93036" lon="2.256">
        <ele>205</ele>
        <time>2018-01-17T20:42:37+01:00</time>
      </trkpt>
      <trkpt lat="43.9304" lon="2.25579">
        <ele>205</ele>
        <time>2018-01-17T20:42:37+01:00</time>
      </trkpt>
      <trkpt lat="43.93043" lon="2.25562">
        <ele>205</ele>
        <time>2018-01-17T20:42:37+01:00</time>
      </trkpt>
      <trkpt lat="43.93048" lon="2.25539">
        <ele>204</ele>
        <time>2018-01-17T20:42:37+01:00</time>
      </trkpt>
      <trkpt lat="43.93054" lon="2.25518">
        <ele>203</ele>
        <time>2018-01-17T20:42:37+01:00</time>
      </trkpt>
      <trkpt lat="43.93057" lon="2.25497">
        <ele>203</ele>
        <time>2018-01-17T20:42:37+01:00</time>
      </trkpt>
      <trkpt lat="43.93067" lon="2.25468">
        <ele>201</ele>
        <time>2018-01-17T20:42:37+01:00</time>
      </trkpt>
      <trkpt lat="43.93075" lon="2.25446">
        <ele>199</ele>
        <time>2018-01-17T20:42:37+01:00</time>
      </trkpt>
      <trkpt lat="43.93083" lon="2.25423">
        <ele>196</ele>
        <time>2018-01-17T20:42:37+01:00</time>
      </trkpt>
      <trkpt lat="43.93089" lon="2.25404">
        <ele>197</ele>
        <time>2018-01-17T20:42:37+01:00</time>
      </trkpt>
      <trkpt lat="43.93096" lon="2.25387">
        <ele>197</ele>
        <time>2018-01-17T20:42:37+01:00</time>
      </trkpt>
      <trkpt lat="43.93099" lon="2.25374">
        <ele>198</ele>
      </trkpt>
      <trkpt lat="43.93106" lon="2.25362">
        <ele>197</ele>
      </trkpt>
      <trkpt lat="43.93113" lon="2.25345">
        <ele>197</ele>
      </trkpt>
      <trkpt lat="43.93121" lon="2.25328">
        <ele>196</ele>
        <time>2018-01-17T20:42:37+01:00</time>
      </trkpt>
      <trkpt lat="43.93127" lon="2.25318">
        <ele>195</ele>
        <time>2018-01-17T20:42:37+01:00</time>
      </trkpt>
      <trkpt lat="43.9313" lon="2.25308">
        <ele>195</ele>
        <time>2018-01-17T20:42:37+01:00</time>
      </trkpt>
      <trkpt lat="43.93135" lon="2.253">
        <ele>195</ele>
        <time>2018-01-17T20:42:37+01:00</time>
      </trkpt>
      <trkpt lat="43.93135" lon="2.2529">
        <ele>195</ele>
        <time>2018-01-17T20:42:37+01:00</time>
      </trkpt>
      <trkpt lat="43.93128" lon="2.253">
        <ele>197</ele>
      </trkpt>
      <trkpt lat="43.93122" lon="2.25311">
        <ele>198</ele>
      </trkpt>
      <trkpt lat="43.93119" lon="2.2532">
        <ele>198</ele>
        <time>2018-01-17T20:42:37+01:00</time>
      </trkpt>
      <trkpt lat="43.93116" lon="2.25325">
        <ele>198</ele>
        <time>2018-01-17T20:42:37+01:00</time>
      </trkpt>
      <trkpt lat="43.93111" lon="2.25326">
        <ele>199</ele>
        <time>2018-01-17T20:42:37+01:00</time>
      </trkpt>
      <trkpt lat="43.93106" lon="2.25326">
        <ele>201</ele>
        <time>2018-01-17T20:42:37+01:00</time>
      </trkpt>
      <trkpt lat="43.93111" lon="2.25312">
        <ele>201</ele>
        <time>2018-01-17T20:42:37+01:00</time>
      </trkpt>
      <trkpt lat="43.93114" lon="2.25303">
        <ele>202</ele>
      </trkpt>
      <trkpt lat="43.93118" lon="2.25291">
        <ele>202</ele>
        <time>2018-01-17T20:42:37+01:00</time>
      </trkpt>
      <trkpt lat="43.93125" lon="2.25276">
        <ele>201</ele>
        <time>2018-01-17T20:42:37+01:00</time>
      </trkpt>
      <trkpt lat="43.9313" lon="2.25266">
        <ele>200</ele>
      </trkpt>
      <trkpt lat="43.93134" lon="2.25254">
        <ele>200</ele>
        <time>2018-01-17T20:42:37+01:00</time>
      </trkpt>
      <trkpt lat="43.93145" lon="2.25233">
        <ele>198</ele>
        <time>2018-01-17T20:42:37+01:00</time>
      </trkpt>
      <trkpt lat="43.93155" lon="2.25218">
        <ele>196</ele>
      </trkpt>
      <trkpt lat="43.93164" lon="2.25197">
        <ele>195</ele>
        <time>2018-01-17T20:42:37+01:00</time>
      </trkpt>
      <trkpt lat="43.9317" lon="2.2518">
        <ele>195</ele>
      </trkpt>
      <trkpt lat="43.93172" lon="2.25167">
        <ele>196</ele>
        <time>2018-01-17T20:42:37+01:00</time>
      </trkpt>
      <trkpt lat="43.93179" lon="2.25154">
        <ele>197</ele>
        <time>2018-01-17T20:42:37+01:00</time>
      </trkpt>
      <trkpt lat="43.93186" lon="2.25139">
        <ele>198</ele>
        <time>2018-01-17T20:42:37+01:00</time>
      </trkpt>
      <trkpt lat="43.93192" lon="2.25127">
        <ele>199</ele>
      </trkpt>
      <trkpt lat="43.93198" lon="2.25116">
        <ele>200</ele>
        <time>2018-01-17T20:42:37+01:00</time>
      </trkpt>
      <trkpt lat="43.93204" lon="2.25105">
        <ele>200</ele>
        <time>2018-01-17T20:42:37+01:00</time>
      </trkpt>
      <trkpt lat="43.93212" lon="2.25088">
        <ele>200</ele>
        <time>2018-01-17T20:42:37+01:00</time>
      </trkpt>
      <trkpt lat="43.93224" lon="2.2506">
        <ele>202</ele>
        <time>2018-01-17T20:42:37+01:00</time>
      </trkpt>
      <trkpt lat="43.93233" lon="2.25048">
        <ele>203</ele>
        <time>2018-01-17T20:42:37+01:00</time>
      </trkpt>
      <trkpt lat="43.93244" lon="2.25034">
        <ele>204</ele>
        <time>2018-01-17T20:42:37+01:00</time>
      </trkpt>
      <trkpt lat="43.93257" lon="2.25016">
        <ele>205</ele>
        <time>2018-01-17T20:42:37+01:00</time>
      </trkpt>
      <trkpt lat="43.93271" lon="2.24995">
        <ele>207</ele>
        <time>2018-01-17T20:42:37+01:00</time>
      </trkpt>
      <trkpt lat="43.93283" lon="2.24982">
        <ele>207</ele>
      </trkpt>
      <trkpt lat="43.93296" lon="2.2497">
        <ele>206</ele>
        <time>2018-01-17T20:42:37+01:00</time>
      </trkpt>
      <trkpt lat="43.93304" lon="2.24958">
        <ele>207</ele>
      </trkpt>
      <trkpt lat="43.93314" lon="2.24949">
        <ele>207</ele>
        <time>2018-01-17T20:42:37+01:00</time>
      </trkpt>
      <trkpt lat="43.93324" lon="2.24931">
        <ele>208</ele>
      </trkpt>
      <trkpt lat="43.93335" lon="2.24922">
        <ele>207</ele>
        <time>2018-01-17T20:42:37+01:00</time>
      </trkpt>
      <trkpt lat="43.93343" lon="2.24907">
        <ele>207</ele>
      </trkpt>
      <trkpt lat="43.93352" lon="2.24891">
        <ele>208</ele>
        <time>2018-01-17T20:42:37+01:00</time>
      </trkpt>
      <trkpt lat="43.93365" lon="2.24878">
        <ele>206</ele>
        <time>2018-01-17T20:42:37+01:00</time>
      </trkpt>
      <trkpt lat="43.93377" lon="2.24863">
        <ele>205</ele>
      </trkpt>
      <trkpt lat="43.93384" lon="2.24848">
        <ele>206</ele>
      </trkpt>
      <trkpt lat="43.93399" lon="2.24827">
        <ele>204</ele>
        <time>2018-01-17T20:42:37+01:00</time>
      </trkpt>
      <trkpt lat="43.93412" lon="2.24804">
        <ele>203</ele>
        <time>2018-01-17T20:42:37+01:00</time>
      </trkpt>
      <trkpt lat="43.93423" lon="2.24784">
        <ele>203</ele>
        <time>2018-01-17T20:42:37+01:00</time>
      </trkpt>
      <trkpt lat="43.93434" lon="2.24766">
        <ele>202</ele>
        <time>2018-01-17T20:42:37+01:00</time>
      </trkpt>
      <trkpt lat="43.93441" lon="2.24752">
        <ele>202</ele>
        <time>2018-01-17T20:42:37+01:00</time>
      </trkpt>
      <trkpt lat="43.93448" lon="2.24739">
        <ele>201</ele>
        <time>2018-01-17T20:42:37+01:00</time>
      </trkpt>
      <trkpt lat="43.93455" lon="2.2472">
        <ele>202</ele>
        <time>2018-01-17T20:42:37+01:00</time>
      </trkpt>
      <trkpt lat="43.93464" lon="2.24708">
        <ele>200</ele>
        <time>2018-01-17T20:42:37+01:00</time>
      </trkpt>
      <trkpt lat="43.9347" lon="2.24694">
        <ele>200</ele>
        <time>2018-01-17T20:42:37+01:00</time>
      </trkpt>
      <trkpt lat="43.93479" lon="2.2468">
        <ele>198</ele>
      </trkpt>
      <trkpt lat="43.93488" lon="2.24666">
        <ele>197</ele>
        <time>2018-01-17T20:42:37+01:00</time>
      </trkpt>
      <trkpt lat="43.93495" lon="2.24657">
        <ele>196</ele>
      </trkpt>
      <trkpt lat="43.93502" lon="2.24656">
        <ele>194</ele>
        <time>2018-01-17T20:42:37+01:00</time>
      </trkpt>
      <trkpt lat="43.93518" lon="2.24653">
        <ele>191</ele>
        <time>2018-01-17T20:42:37+01:00</time>
      </trkpt>
      <trkpt lat="43.93525" lon="2.24638">
        <ele>191</ele>
      </trkpt>
      <trkpt lat="43.93539" lon="2.24612">
        <ele>190</ele>
        <time>2018-01-17T20:42:37+01:00</time>
      </trkpt>
      <trkpt lat="43.93547" lon="2.24595">
        <ele>190</ele>
        <time>2018-01-17T20:42:37+01:00</time>
      </trkpt>
      <trkpt lat="43.9356" lon="2.24572">
        <ele>188</ele>
        <time>2018-01-17T20:42:37+01:00</time>
      </trkpt>
      <trkpt lat="43.93572" lon="2.24546">
        <ele>188</ele>
      </trkpt>
      <trkpt lat="43.93584" lon="2.24524">
        <ele>186</ele>
      </trkpt>
      <trkpt lat="43.93595" lon="2.24502">
        <ele>186</ele>
      </trkpt>
      <trkpt lat="43.93609" lon="2.24477">
        <ele>187</ele>
        <time>2018-01-17T20:42:37+01:00</time>
      </trkpt>
      <trkpt lat="43.9362" lon="2.24463">
        <ele>187</ele>
        <time>2018-01-17T20:42:37+01:00</time>
      </trkpt>
      <trkpt lat="43.93627" lon="2.24448">
        <ele>187</ele>
        <time>2018-01-17T20:42:37+01:00</time>
      </trkpt>
      <trkpt lat="43.93634" lon="2.24436">
        <ele>187</ele>
        <time>2018-01-17T20:42:37+01:00</time>
      </trkpt>
      <trkpt lat="43.93639" lon="2.24422">
        <ele>188</ele>
        <time>2018-01-17T20:42:37+01:00</time>
      </trkpt>
      <trkpt lat="43.93635" lon="2.24416">
        <ele>189</ele>
      </trkpt>
      <trkpt lat="43.93641" lon="2.24407">
        <ele>188</ele>
        <time>2018-01-17T20:42:37+01:00</time>
      </trkpt>
      <trkpt lat="43.93649" lon="2.24388">
        <ele>187</ele>
      </trkpt>
      <trkpt lat="43.9366" lon="2.24368">
        <ele>186</ele>
        <time>2018-01-17T20:42:37+01:00</time>
      </trkpt>
      <trkpt lat="43.93671" lon="2.24341">
        <ele>184</ele>
        <time>2018-01-17T20:42:37+01:00</time>
      </trkpt>
      <trkpt lat="43.9368" lon="2.24321">
        <ele>184</ele>
      </trkpt>
      <trkpt lat="43.93684" lon="2.24299">
        <ele>185</ele>
        <time>2018-01-17T20:42:37+01:00</time>
      </trkpt>
      <trkpt lat="43.9369" lon="2.24286">
        <ele>185</ele>
        <time>2018-01-17T20:42:37+01:00</time>
      </trkpt>
      <trkpt lat="43.937" lon="2.24269">
        <ele>185</ele>
      </trkpt>
      <trkpt lat="43.93712" lon="2.24251">
        <ele>185</ele>
        <time>2018-01-17T20:42:37+01:00</time>
      </trkpt>
      <trkpt lat="43.93721" lon="2.2424">
        <ele>186</ele>
      </trkpt>
      <trkpt lat="43.93732" lon="2.24229">
        <ele>186</ele>
      </trkpt>
      <trkpt lat="43.93745" lon="2.2422">
        <ele>185</ele>
      </trkpt>
      <trkpt lat="43.93758" lon="2.24208">
        <ele>184</ele>
      </trkpt>
      <trkpt lat="43.93769" lon="2.24198">
        <ele>184</ele>
      </trkpt>
      <trkpt lat="43.93783" lon="2.24185">
        <ele>184</ele>
        <time>2018-01-17T20:42:37+01:00</time>
      </trkpt>
      <trkpt lat="43.93799" lon="2.24164">
        <ele>185</ele>
        <time>2018-01-17T20:42:37+01:00</time>
      </trkpt>
      <trkpt lat="43.93814" lon="2.24141">
        <ele>185</ele>
        <time>2018-01-17T20:42:37+01:00</time>
      </trkpt>
      <trkpt lat="43.93818" lon="2.24131">
        <ele>185</ele>
      </trkpt>
      <trkpt lat="43.93826" lon="2.24121">
        <ele>185</ele>
        <time>2018-01-17T20:42:37+01:00</time>
      </trkpt>
      <trkpt lat="43.93839" lon="2.24119">
        <ele>184</ele>
      </trkpt>
      <trkpt lat="43.9385" lon="2.24115">
        <ele>184</ele>
        <time>2018-01-17T20:42:37+01:00</time>
      </trkpt>
      <trkpt lat="43.93868" lon="2.24098">
        <ele>184</ele>
        <time>2018-01-17T20:42:37+01:00</time>
      </trkpt>
      <trkpt lat="43.93877" lon="2.24089">
        <ele>184</ele>
        <time>2018-01-17T20:42:37+01:00</time>
      </trkpt>
      <trkpt lat="43.9388" lon="2.24083">
        <ele>184</ele>
        <time>2018-01-17T20:42:37+01:00</time>
      </trkpt>
      <trkpt lat="43.93866" lon="2.24074">
        <ele>186</ele>
        <time>2018-01-17T20:42:37+01:00</time>
      </trkpt>
      <trkpt lat="43.93856" lon="2.24057">
        <ele>188</ele>
        <time>2018-01-17T20:42:37+01:00</time>
      </trkpt>
      <trkpt lat="43.93848" lon="2.24041">
        <ele>190</ele>
        <time>2018-01-17T20:42:37+01:00</time>
      </trkpt>
      <trkpt lat="43.93843" lon="2.24029">
        <ele>192</ele>
        <time>2018-01-17T20:42:37+01:00</time>
      </trkpt>
      <trkpt lat="43.93841" lon="2.24017">
        <ele>194</ele>
        <time>2018-01-17T20:42:37+01:00</time>
      </trkpt>
      <trkpt lat="43.93842" lon="2.23999">
        <ele>195</ele>
        <time>2018-01-17T20:42:37+01:00</time>
      </trkpt>
      <trkpt lat="43.93843" lon="2.23989">
        <ele>197</ele>
        <time>2018-01-17T20:42:37+01:00</time>
      </trkpt>
      <trkpt lat="43.93848" lon="2.23979">
        <ele>199</ele>
      </trkpt>
      <trkpt lat="43.93856" lon="2.23967">
        <ele>200</ele>
        <time>2018-01-17T20:42:37+01:00</time>
      </trkpt>
      <trkpt lat="43.93865" lon="2.23954">
        <ele>201</ele>
        <time>2018-01-17T20:42:37+01:00</time>
      </trkpt>
      <trkpt lat="43.9385" lon="2.23953">
        <ele>204</ele>
        <time>2018-01-17T20:42:37+01:00</time>
      </trkpt>
      <trkpt lat="43.93836" lon="2.23951">
        <ele>207</ele>
        <time>2018-01-17T20:42:37+01:00</time>
      </trkpt>
      <trkpt lat="43.93813" lon="2.23949">
        <ele>213</ele>
        <time>2018-01-17T20:42:37+01:00</time>
      </trkpt>
      <trkpt lat="43.93802" lon="2.23948">
        <ele>216</ele>
      </trkpt>
      <trkpt lat="43.9379" lon="2.23953">
        <ele>218</ele>
        <time>2018-01-17T20:42:37+01:00</time>
      </trkpt>
      <trkpt lat="43.93777" lon="2.23962">
        <ele>220</ele>
        <time>2018-01-17T20:42:37+01:00</time>
      </trkpt>
      <trkpt lat="43.93764" lon="2.23974">
        <ele>221</ele>
        <time>2018-01-17T20:42:37+01:00</time>
      </trkpt>
      <trkpt lat="43.93752" lon="2.23984">
        <ele>222</ele>
        <time>2018-01-17T20:42:37+01:00</time>
      </trkpt>
      <trkpt lat="43.9374" lon="2.23994">
        <ele>223</ele>
        <time>2018-01-17T20:42:37+01:00</time>
      </trkpt>
      <trkpt lat="43.93728" lon="2.24003">
        <ele>226</ele>
        <time>2018-01-17T20:42:37+01:00</time>
      </trkpt>
      <trkpt lat="43.93711" lon="2.24015">
        <ele>229</ele>
      </trkpt>
      <trkpt lat="43.93694" lon="2.2403">
        <ele>232</ele>
      </trkpt>
      <trkpt lat="43.93677" lon="2.24041">
        <ele>235</ele>
        <time>2018-01-17T20:42:37+01:00</time>
      </trkpt>
      <trkpt lat="43.93666" lon="2.24049">
        <ele>237</ele>
      </trkpt>
      <trkpt lat="43.93653" lon="2.24058">
        <ele>239</ele>
        <time>2018-01-17T20:42:37+01:00</time>
      </trkpt>
      <trkpt lat="43.93639" lon="2.2406">
        <ele>242</ele>
        <time>2018-01-17T20:42:37+01:00</time>
      </trkpt>
      <trkpt lat="43.93627" lon="2.24061">
        <ele>244</ele>
        <time>2018-01-17T20:42:37+01:00</time>
      </trkpt>
      <trkpt lat="43.93607" lon="2.24057">
        <ele>250</ele>
        <time>2018-01-17T20:42:37+01:00</time>
      </trkpt>
      <trkpt lat="43.93586" lon="2.24054">
        <ele>255</ele>
        <time>2018-01-17T20:42:37+01:00</time>
      </trkpt>
      <trkpt lat="43.93567" lon="2.24055">
        <ele>257</ele>
        <time>2018-01-17T20:42:37+01:00</time>
      </trkpt>
      <trkpt lat="43.93548" lon="2.24055">
        <ele>259</ele>
      </trkpt>
      <trkpt lat="43.93534" lon="2.24058">
        <ele>260</ele>
      </trkpt>
      <trkpt lat="43.93521" lon="2.24062">
        <ele>261</ele>
        <time>2018-01-17T20:42:37+01:00</time>
      </trkpt>
      <trkpt lat="43.93508" lon="2.24063">
        <ele>263</ele>
        <time>2018-01-17T20:42:37+01:00</time>
      </trkpt>
      <trkpt lat="43.93493" lon="2.24061">
        <ele>264</ele>
      </trkpt>
      <trkpt lat="43.93481" lon="2.24058">
        <ele>264</ele>
      </trkpt>
      <trkpt lat="43.93465" lon="2.24054">
        <ele>264</ele>
        <time>2018-01-17T20:42:37+01:00</time>
      </trkpt>
      <trkpt lat="43.93454" lon="2.24053">
        <ele>265</ele>
        <time>2018-01-17T20:42:37+01:00</time>
      </trkpt>
      <trkpt lat="43.93439" lon="2.24053">
        <ele>265</ele>
        <time>2018-01-17T20:42:37+01:00</time>
      </trkpt>
      <trkpt lat="43.93419" lon="2.24053">
        <ele>265</ele>
      </trkpt>
      <trkpt lat="43.93403" lon="2.24052">
        <ele>265</ele>
      </trkpt>
      <trkpt lat="43.93385" lon="2.24055">
        <ele>265</ele>
      </trkpt>
      <trkpt lat="43.93364" lon="2.24053">
        <ele>265</ele>
        <time>2018-01-17T20:42:37+01:00</time>
      </trkpt>
      <trkpt lat="43.9336" lon="2.24064">
        <ele>265</ele>
        <time>2018-01-17T20:42:37+01:00</time>
      </trkpt>
      <trkpt lat="43.93357" lon="2.24075">
        <ele>265</ele>
        <time>2018-01-17T20:42:37+01:00</time>
      </trkpt>
      <trkpt lat="43.93357" lon="2.24092">
        <ele>265</ele>
        <time>2018-01-17T20:42:37+01:00</time>
      </trkpt>
      <trkpt lat="43.93354" lon="2.24109">
        <ele>265</ele>
        <time>2018-01-17T20:42:37+01:00</time>
      </trkpt>
      <trkpt lat="43.93349" lon="2.2414">
        <ele>265</ele>
      </trkpt>
      <trkpt lat="43.93346" lon="2.24166">
        <ele>265</ele>
      </trkpt>
      <trkpt lat="43.93342" lon="2.24195">
        <ele>265</ele>
        <time>2018-01-17T20:42:37+01:00</time>
      </trkpt>
      <trkpt lat="43.9334" lon="2.24218">
        <ele>266</ele>
        <time>2018-01-17T20:42:37+01:00</time>
      </trkpt>
      <trkpt lat="43.93338" lon="2.24231">
        <ele>266</ele>
        <time>2018-01-17T20:42:37+01:00</time>
      </trkpt>
      <trkpt lat="43.93317" lon="2.24238">
        <ele>267</ele>
      </trkpt>
      <trkpt lat="43.93297" lon="2.24244">
        <ele>268</ele>
        <time>2018-01-17T20:42:37+01:00</time>
      </trkpt>
      <trkpt lat="43.93272" lon="2.24253">
        <ele>268</ele>
        <time>2018-01-17T20:42:37+01:00</time>
      </trkpt>
      <trkpt lat="43.93256" lon="2.24259">
        <ele>269</ele>
      </trkpt>
      <trkpt lat="43.93244" lon="2.24266">
        <ele>269</ele>
        <time>2018-01-17T20:42:37+01:00</time>
      </trkpt>
      <trkpt lat="43.93226" lon="2.2428">
        <ele>269</ele>
        <time>2018-01-17T20:42:37+01:00</time>
      </trkpt>
      <trkpt lat="43.93212" lon="2.24294">
        <ele>270</ele>
        <time>2018-01-17T20:42:37+01:00</time>
      </trkpt>
      <trkpt lat="43.93198" lon="2.24307">
        <ele>270</ele>
      </trkpt>
      <trkpt lat="43.93182" lon="2.24323">
        <ele>271</ele>
        <time>2018-01-17T20:42:37+01:00</time>
      </trkpt>
      <trkpt lat="43.93168" lon="2.24337">
        <ele>271</ele>
        <time>2018-01-17T20:42:37+01:00</time>
      </trkpt>
      <trkpt lat="43.93149" lon="2.24362">
        <ele>272</ele>
        <time>2018-01-17T20:42:37+01:00</time>
      </trkpt>
      <trkpt lat="43.93137" lon="2.24378">
        <ele>272</ele>
        <time>2018-01-17T20:42:37+01:00</time>
      </trkpt>
      <trkpt lat="43.93127" lon="2.24389">
        <ele>272</ele>
      </trkpt>
      <trkpt lat="43.9312" lon="2.24395">
        <ele>272</ele>
      </trkpt>
      <trkpt lat="43.93116" lon="2.24406">
        <ele>272</ele>
        <time>2018-01-17T20:42:37+01:00</time>
      </trkpt>
      <trkpt lat="43.9311" lon="2.24407">
        <ele>272</ele>
      </trkpt>
      <trkpt lat="43.93104" lon="2.24411">
        <ele>272</ele>
      </trkpt>
      <trkpt lat="43.931" lon="2.2442">
        <ele>272</ele>
        <time>2018-01-17T20:42:37+01:00</time>
      </trkpt>
      <trkpt lat="43.93076" lon="2.2444">
        <ele>272</ele>
      </trkpt>
      <trkpt lat="43.93065" lon="2.24448">
        <ele>273</ele>
        <time>2018-01-17T20:42:37+01:00</time>
      </trkpt>
      <trkpt lat="43.93049" lon="2.24465">
        <ele>273</ele>
      </trkpt>
      <trkpt lat="43.9303" lon="2.24482">
        <ele>274</ele>
      </trkpt>
      <trkpt lat="43.93012" lon="2.24497">
        <ele>275</ele>
      </trkpt>
      <trkpt lat="43.92997" lon="2.24511">
        <ele>275</ele>
        <time>2018-01-17T20:42:37+01:00</time>
      </trkpt>
      <trkpt lat="43.92966" lon="2.24541">
        <ele>276</ele>
        <time>2018-01-17T20:42:37+01:00</time>
      </trkpt>
      <trkpt lat="43.92947" lon="2.24562">
        <ele>276</ele>
        <time>2018-01-17T20:42:37+01:00</time>
      </trkpt>
      <trkpt lat="43.92949" lon="2.24574">
        <ele>276</ele>
        <time>2018-01-17T20:42:37+01:00</time>
      </trkpt>
      <trkpt lat="43.92952" lon="2.24585">
        <ele>277</ele>
      </trkpt>
      <trkpt lat="43.92949" lon="2.246">
        <ele>277</ele>
        <time>2018-01-17T20:42:37+01:00</time>
      </trkpt>
      <trkpt lat="43.92948" lon="2.24623">
        <ele>276</ele>
      </trkpt>
      <trkpt lat="43.92946" lon="2.24653">
        <ele>276</ele>
        <time>2018-01-17T20:42:37+01:00</time>
      </trkpt>
      <trkpt lat="43.92946" lon="2.24678">
        <ele>276</ele>
      </trkpt>
      <trkpt lat="43.92945" lon="2.24704">
        <ele>276</ele>
        <time>2018-01-17T20:42:37+01:00</time>
      </trkpt>
      <trkpt lat="43.92945" lon="2.24724">
        <ele>276</ele>
      </trkpt>
      <trkpt lat="43.92945" lon="2.24744">
        <ele>276</ele>
      </trkpt>
      <trkpt lat="43.92951" lon="2.24756">
        <ele>275</ele>
      </trkpt>
      <trkpt lat="43.92955" lon="2.24772">
        <ele>273</ele>
        <time>2018-01-17T20:42:37+01:00</time>
      </trkpt>
      <trkpt lat="43.92955" lon="2.24787">
        <ele>272</ele>
      </trkpt>
      <trkpt lat="43.92952" lon="2.24806">
        <ele>272</ele>
      </trkpt>
      <trkpt lat="43.92953" lon="2.24822">
        <ele>271</ele>
        <time>2018-01-17T20:42:37+01:00</time>
      </trkpt>
      <trkpt lat="43.92957" lon="2.24836">
        <ele>270</ele>
        <time>2018-01-17T20:42:37+01:00</time>
      </trkpt>
      <trkpt lat="43.9296" lon="2.24841">
        <ele>269</ele>
      </trkpt>
      <trkpt lat="43.92963" lon="2.24846">
        <ele>269</ele>
        <time>2018-01-17T20:42:37+01:00</time>
      </trkpt>
      <trkpt lat="43.9297" lon="2.24855">
        <ele>268</ele>
        <time>2018-01-17T20:42:37+01:00</time>
      </trkpt>
      <trkpt lat="43.92975" lon="2.24865">
        <ele>267</ele>
        <time>2018-01-17T20:42:37+01:00</time>
      </trkpt>
      <trkpt lat="43.92983" lon="2.24871">
        <ele>266</ele>
        <time>2018-01-17T20:42:37+01:00</time>
      </trkpt>
      <trkpt lat="43.92999" lon="2.24893">
        <ele>263</ele>
        <time>2018-01-17T20:42:37+01:00</time>
      </trkpt>
      <trkpt lat="43.93017" lon="2.2491">
        <ele>259</ele>
        <time>2018-01-17T20:42:37+01:00</time>
      </trkpt>
      <trkpt lat="43.93034" lon="2.24929">
        <ele>255</ele>
        <time>2018-01-17T20:42:37+01:00</time>
      </trkpt>
      <trkpt lat="43.93047" lon="2.24947">
        <ele>253</ele>
        <time>2018-01-17T20:42:37+01:00</time>
      </trkpt>
      <trkpt lat="43.93052" lon="2.24958">
        <ele>253</ele>
        <time>2018-01-17T20:42:37+01:00</time>
      </trkpt>
      <trkpt lat="43.93053" lon="2.24972">
        <ele>254</ele>
        <time>2018-01-17T20:42:37+01:00</time>
      </trkpt>
      <trkpt lat="43.93054" lon="2.24983">
        <ele>254</ele>
        <time>2018-01-17T20:42:37+01:00</time>
      </trkpt>
      <trkpt lat="43.93055" lon="2.24993">
        <ele>255</ele>
        <time>2018-01-17T20:42:37+01:00</time>
      </trkpt>
      <trkpt lat="43.93054" lon="2.25007">
        <ele>256</ele>
        <time>2018-01-17T20:42:37+01:00</time>
      </trkpt>
      <trkpt lat="43.9305" lon="2.25027">
        <ele>256</ele>
        <time>2018-01-17T20:42:37+01:00</time>
      </trkpt>
      <trkpt lat="43.93048" lon="2.25051">
        <ele>255</ele>
        <time>2018-01-17T20:42:37+01:00</time>
      </trkpt>
      <trkpt lat="43.93047" lon="2.25071">
        <ele>255</ele>
        <time>2018-01-17T20:42:37+01:00</time>
      </trkpt>
      <trkpt lat="43.93037" lon="2.25088">
        <ele>257</ele>
        <time>2018-01-17T20:42:37+01:00</time>
      </trkpt>
      <trkpt lat="43.93031" lon="2.25098">
        <ele>257</ele>
        <time>2018-01-17T20:42:37+01:00</time>
      </trkpt>
      <trkpt lat="43.93022" lon="2.25103">
        <ele>259</ele>
        <time>2018-01-17T20:42:37+01:00</time>
      </trkpt>
      <trkpt lat="43.93002" lon="2.25108">
        <ele>264</ele>
        <time>2018-01-17T20:42:37+01:00</time>
      </trkpt>
      <trkpt lat="43.92986" lon="2.25111">
        <ele>268</ele>
        <time>2018-01-17T20:42:37+01:00</time>
      </trkpt>
      <trkpt lat="43.92976" lon="2.25118">
        <ele>270</ele>
      </trkpt>
      <trkpt lat="43.92967" lon="2.25133">
        <ele>271</ele>
        <time>2018-01-17T20:42:37+01:00</time>
      </trkpt>
      <trkpt lat="43.9296" lon="2.25146">
        <ele>272</ele>
        <time>2018-01-17T20:42:37+01:00</time>
      </trkpt>
      <trkpt lat="43.92953" lon="2.25157">
        <ele>273</ele>
      </trkpt>
      <trkpt lat="43.92957" lon="2.25176">
        <ele>270</ele>
        <time>2018-01-17T20:42:37+01:00</time>
      </trkpt>
      <trkpt lat="43.92961" lon="2.25191">
        <ele>267</ele>
        <time>2018-01-17T20:42:37+01:00</time>
      </trkpt>
      <trkpt lat="43.92971" lon="2.25214">
        <ele>261</ele>
        <time>2018-01-17T20:42:37+01:00</time>
      </trkpt>
      <trkpt lat="43.92974" lon="2.25234">
        <ele>258</ele>
        <time>2018-01-17T20:42:37+01:00</time>
      </trkpt>
      <trkpt lat="43.92967" lon="2.25252">
        <ele>258</ele>
        <time>2018-01-17T20:42:37+01:00</time>
      </trkpt>
      <trkpt lat="43.92955" lon="2.25268">
        <ele>259</ele>
      </trkpt>
      <trkpt lat="43.9294" lon="2.25284">
        <ele>261</ele>
      </trkpt>
      <trkpt lat="43.92923" lon="2.25302">
        <ele>262</ele>
        <time>2018-01-17T20:42:37+01:00</time>
      </trkpt>
      <trkpt lat="43.92913" lon="2.25308">
        <ele>263</ele>
        <time>2018-01-17T20:42:37+01:00</time>
      </trkpt>
      <trkpt lat="43.92903" lon="2.25315">
        <ele>264</ele>
      </trkpt>
      <trkpt lat="43.92895" lon="2.25318">
        <ele>265</ele>
      </trkpt>
      <trkpt lat="43.92879" lon="2.25323">
        <ele>267</ele>
        <time>2018-01-17T20:42:37+01:00</time>
      </trkpt>
      <trkpt lat="43.92874" lon="2.25328">
        <ele>268</ele>
        <time>2018-01-17T20:42:37+01:00</time>
      </trkpt>
      <trkpt lat="43.92873" lon="2.25339">
        <ele>267</ele>
      </trkpt>
      <trkpt lat="43.92884" lon="2.25351">
        <ele>266</ele>
        <time>2018-01-17T20:42:37+01:00</time>
      </trkpt>
      <trkpt lat="43.92894" lon="2.25362">
        <ele>264</ele>
        <time>2018-01-17T20:42:37+01:00</time>
      </trkpt>
      <trkpt lat="43.92911" lon="2.25375">
        <ele>262</ele>
        <time>2018-01-17T20:42:37+01:00</time>
      </trkpt>
      <trkpt lat="43.92926" lon="2.25386">
        <ele>259</ele>
        <time>2018-01-17T20:42:37+01:00</time>
      </trkpt>
      <trkpt lat="43.92933" lon="2.25394">
        <ele>258</ele>
        <time>2018-01-17T20:42:37+01:00</time>
      </trkpt>
      <trkpt lat="43.92942" lon="2.25401">
        <ele>256</ele>
        <time>2018-01-17T20:42:37+01:00</time>
      </trkpt>
      <trkpt lat="43.92944" lon="2.2541">
        <ele>257</ele>
        <time>2018-01-17T20:42:37+01:00</time>
      </trkpt>
      <trkpt lat="43.92944" lon="2.25421">
        <ele>257</ele>
        <time>2018-01-17T20:42:37+01:00</time>
      </trkpt>
      <trkpt lat="43.92938" lon="2.25433">
        <ele>259</ele>
        <time>2018-01-17T20:42:37+01:00</time>
      </trkpt>
      <trkpt lat="43.92928" lon="2.25438">
        <ele>262</ele>
      </trkpt>
      <trkpt lat="43.92917" lon="2.25444">
        <ele>266</ele>
        <time>2018-01-17T20:42:37+01:00</time>
      </trkpt>
      <trkpt lat="43.92903" lon="2.25456">
        <ele>269</ele>
        <time>2018-01-17T20:42:37+01:00</time>
      </trkpt>
      <trkpt lat="43.92889" lon="2.25466">
        <ele>273</ele>
      </trkpt>
      <trkpt lat="43.92876" lon="2.2548">
        <ele>277</ele>
        <time>2018-01-17T20:42:37+01:00</time>
      </trkpt>
      <trkpt lat="43.92864" lon="2.25492">
        <ele>280</ele>
        <time>2018-01-17T20:42:37+01:00</time>
      </trkpt>
      <trkpt lat="43.92857" lon="2.25507">
        <ele>283</ele>
        <time>2018-01-17T20:42:37+01:00</time>
      </trkpt>
      <trkpt lat="43.92849" lon="2.25515">
        <ele>284</ele>
        <time>2018-01-17T20:42:37+01:00</time>
      </trkpt>
      <trkpt lat="43.92842" lon="2.2552">
        <ele>286</ele>
        <time>2018-01-17T20:42:37+01:00</time>
      </trkpt>
      <trkpt lat="43.92831" lon="2.2552">
        <ele>288</ele>
        <time>2018-01-17T20:42:37+01:00</time>
      </trkpt>
      <trkpt lat="43.92817" lon="2.25522">
        <ele>289</ele>
        <time>2018-01-17T20:42:37+01:00</time>
      </trkpt>
      <trkpt lat="43.92803" lon="2.25512">
        <ele>290</ele>
      </trkpt>
      <trkpt lat="43.92778" lon="2.25502">
        <ele>292</ele>
        <time>2018-01-17T20:42:37+01:00</time>
      </trkpt>
      <trkpt lat="43.92764" lon="2.25498">
        <ele>293</ele>
      </trkpt>
      <trkpt lat="43.92758" lon="2.25488">
        <ele>293</ele>
        <time>2018-01-17T20:42:37+01:00</time>
      </trkpt>
      <trkpt lat="43.92751" lon="2.25471">
        <ele>292</ele>
        <time>2018-01-17T20:42:37+01:00</time>
      </trkpt>
      <trkpt lat="43.92748" lon="2.25461">
        <ele>292</ele>
      </trkpt>
      <trkpt lat="43.92741" lon="2.25457">
        <ele>292</ele>
      </trkpt>
      <trkpt lat="43.92725" lon="2.25455">
        <ele>292</ele>
        <time>2018-01-17T20:42:37+01:00</time>
      </trkpt>
      <trkpt lat="43.92717" lon="2.25452">
        <ele>293</ele>
        <time>2018-01-17T20:42:37+01:00</time>
      </trkpt>
      <trkpt lat="43.92711" lon="2.2545">
        <ele>293</ele>
      </trkpt>
      <trkpt lat="43.92702" lon="2.25457">
        <ele>294</ele>
        <time>2018-01-17T20:42:37+01:00</time>
      </trkpt>
      <trkpt lat="43.92692" lon="2.25463">
        <ele>295</ele>
      </trkpt>
      <trkpt lat="43.92684" lon="2.25473">
        <ele>296</ele>
        <time>2018-01-17T20:42:37+01:00</time>
      </trkpt>
      <trkpt lat="43.92675" lon="2.25483">
        <ele>297</ele>
        <time>2018-01-17T20:42:37+01:00</time>
      </trkpt>
      <trkpt lat="43.92669" lon="2.25494">
        <ele>298</ele>
        <time>2018-01-17T20:42:37+01:00</time>
      </trkpt>
      <trkpt lat="43.92666" lon="2.255">
        <ele>298</ele>
      </trkpt>
      <trkpt lat="43.92664" lon="2.25508">
        <ele>298</ele>
        <time>2018-01-17T20:42:37+01:00</time>
      </trkpt>
      <trkpt lat="43.92663" lon="2.25517">
        <ele>298</ele>
        <time>2018-01-17T20:42:37+01:00</time>
      </trkpt>
      <trkpt lat="43.92672" lon="2.2552">
        <ele>298</ele>
      </trkpt>
      <trkpt lat="43.92686" lon="2.25523">
        <ele>297</ele>
      </trkpt>
      <trkpt lat="43.92699" lon="2.2553">
        <ele>297</ele>
      </trkpt>
      <trkpt lat="43.92712" lon="2.25535">
        <ele>297</ele>
        <time>2018-01-17T20:42:37+01:00</time>
      </trkpt>
      <trkpt lat="43.92726" lon="2.25543">
        <ele>296</ele>
      </trkpt>
      <trkpt lat="43.92742" lon="2.25551">
        <ele>296</ele>
        <time>2018-01-17T20:42:37+01:00</time>
      </trkpt>
      <trkpt lat="43.9275" lon="2.25558">
        <ele>296</ele>
      </trkpt>
      <trkpt lat="43.92754" lon="2.25566">
        <ele>296</ele>
      </trkpt>
      <trkpt lat="43.92759" lon="2.25582">
        <ele>296</ele>
        <time>2018-01-17T20:42:37+01:00</time>
      </trkpt>
      <trkpt lat="43.92763" lon="2.256">
        <ele>295</ele>
        <time>2018-01-17T20:42:37+01:00</time>
      </trkpt>
      <trkpt lat="43.92762" lon="2.25616">
        <ele>295</ele>
      </trkpt>
      <trkpt lat="43.92762" lon="2.25631">
        <ele>294</ele>
        <time>2018-01-17T20:42:37+01:00</time>
      </trkpt>
      <trkpt lat="43.92755" lon="2.25642">
        <ele>295</ele>
        <time>2018-01-17T20:42:37+01:00</time>
      </trkpt>
      <trkpt lat="43.92743" lon="2.25653">
        <ele>296</ele>
      </trkpt>
      <trkpt lat="43.92733" lon="2.25659">
        <ele>296</ele>
        <time>2018-01-17T20:42:37+01:00</time>
      </trkpt>
      <trkpt lat="43.92726" lon="2.25669">
        <ele>296</ele>
        <time>2018-01-17T20:42:37+01:00</time>
      </trkpt>
      <trkpt lat="43.92717" lon="2.2568">
        <ele>296</ele>
      </trkpt>
      <trkpt lat="43.92715" lon="2.25695">
        <ele>296</ele>
        <time>2018-01-17T20:42:37+01:00</time>
      </trkpt>
      <trkpt lat="43.92711" lon="2.25713">
        <ele>296</ele>
      </trkpt>
      <trkpt lat="43.92709" lon="2.25726">
        <ele>296</ele>
        <time>2018-01-17T20:42:37+01:00</time>
      </trkpt>
      <trkpt lat="43.92708" lon="2.25742">
        <ele>296</ele>
        <time>2018-01-17T20:42:37+01:00</time>
      </trkpt>
      <trkpt lat="43.92696" lon="2.2574">
        <ele>296</ele>
      </trkpt>
      <trkpt lat="43.92681" lon="2.25734">
        <ele>297</ele>
        <time>2018-01-17T20:42:37+01:00</time>
      </trkpt>
      <trkpt lat="43.92664" lon="2.25725">
        <ele>297</ele>
      </trkpt>
      <trkpt lat="43.9265" lon="2.25718">
        <ele>298</ele>
      </trkpt>
      <trkpt lat="43.92638" lon="2.25712">
        <ele>298</ele>
        <time>2018-01-17T20:42:37+01:00</time>
      </trkpt>
      <trkpt lat="43.92626" lon="2.25705">
        <ele>299</ele>
        <time>2018-01-17T20:42:37+01:00</time>
      </trkpt>
      <trkpt lat="43.92621" lon="2.25713">
        <ele>299</ele>
        <time>2018-01-17T20:42:37+01:00</time>
      </trkpt>
      <trkpt lat="43.92609" lon="2.25735">
        <ele>299</ele>
        <time>2018-01-17T20:42:37+01:00</time>
      </trkpt>
      <trkpt lat="43.92595" lon="2.25752">
        <ele>299</ele>
        <time>2018-01-17T20:42:37+01:00</time>
      </trkpt>
      <trkpt lat="43.92576" lon="2.2577">
        <ele>298</ele>
      </trkpt>
      <trkpt lat="43.92569" lon="2.2578">
        <ele>298</ele>
      </trkpt>
      <trkpt lat="43.9256" lon="2.25793">
        <ele>297</ele>
      </trkpt>
      <trkpt lat="43.92554" lon="2.25804">
        <ele>297</ele>
      </trkpt>
      <trkpt lat="43.92545" lon="2.25817">
        <ele>297</ele>
        <time>2018-01-17T20:42:37+01:00</time>
      </trkpt>
      <trkpt lat="43.92536" lon="2.25828">
        <ele>297</ele>
        <time>2018-01-17T20:42:37+01:00</time>
      </trkpt>
      <trkpt lat="43.9253" lon="2.25841">
        <ele>297</ele>
        <time>2018-01-17T20:42:37+01:00</time>
      </trkpt>
      <trkpt lat="43.92525" lon="2.2585">
        <ele>297</ele>
        <time>2018-01-17T20:42:37+01:00</time>
      </trkpt>
      <trkpt lat="43.92533" lon="2.25867">
        <ele>296</ele>
        <time>2018-01-17T20:42:37+01:00</time>
      </trkpt>
      <trkpt lat="43.9255" lon="2.25887">
        <ele>295</ele>
      </trkpt>
      <trkpt lat="43.92566" lon="2.25904">
        <ele>293</ele>
      </trkpt>
      <trkpt lat="43.92581" lon="2.25915">
        <ele>291</ele>
      </trkpt>
      <trkpt lat="43.92589" lon="2.25926">
        <ele>289</ele>
        <time>2018-01-17T20:42:37+01:00</time>
      </trkpt>
      <trkpt lat="43.92587" lon="2.25938">
        <ele>289</ele>
        <time>2018-01-17T20:42:37+01:00</time>
      </trkpt>
      <trkpt lat="43.92572" lon="2.25943">
        <ele>291</ele>
      </trkpt>
      <trkpt lat="43.92559" lon="2.25949">
        <ele>292</ele>
        <time>2018-01-17T20:42:37+01:00</time>
      </trkpt>
      <trkpt lat="43.92544" lon="2.25959">
        <ele>293</ele>
      </trkpt>
      <trkpt lat="43.92533" lon="2.25975">
        <ele>293</ele>
        <time>2018-01-17T20:42:37+01:00</time>
      </trkpt>
      <trkpt lat="43.92518" lon="2.25998">
        <ele>295</ele>
        <time>2018-01-17T20:42:37+01:00</time>
      </trkpt>
      <trkpt lat="43.92503" lon="2.26015">
        <ele>294</ele>
        <time>2018-01-17T20:42:37+01:00</time>
      </trkpt>
      <trkpt lat="43.92491" lon="2.26027">
        <ele>293</ele>
      </trkpt>
      <trkpt lat="43.92475" lon="2.26037">
        <ele>292</ele>
        <time>2018-01-17T20:42:37+01:00</time>
      </trkpt>
      <trkpt lat="43.92464" lon="2.26044">
        <ele>292</ele>
      </trkpt>
      <trkpt lat="43.92445" lon="2.26052">
        <ele>292</ele>
        <time>2018-01-17T20:42:37+01:00</time>
      </trkpt>
      <trkpt lat="43.92431" lon="2.26075">
        <ele>290</ele>
        <time>2018-01-17T20:42:37+01:00</time>
      </trkpt>
      <trkpt lat="43.92415" lon="2.26094">
        <ele>288</ele>
        <time>2018-01-17T20:42:37+01:00</time>
      </trkpt>
      <trkpt lat="43.92403" lon="2.26113">
        <ele>284</ele>
      </trkpt>
      <trkpt lat="43.92391" lon="2.26132">
        <ele>282</ele>
      </trkpt>
      <trkpt lat="43.92375" lon="2.26159">
        <ele>279</ele>
        <time>2018-01-17T20:42:37+01:00</time>
      </trkpt>
      <trkpt lat="43.9236" lon="2.26177">
        <ele>278</ele>
      </trkpt>
      <trkpt lat="43.92339" lon="2.26191">
        <ele>280</ele>
        <time>2018-01-17T20:42:37+01:00</time>
      </trkpt>
      <trkpt lat="43.92324" lon="2.26219">
        <ele>277</ele>
        <time>2018-01-17T20:42:37+01:00</time>
      </trkpt>
      <trkpt lat="43.92319" lon="2.26231">
        <ele>275</ele>
        <time>2018-01-17T20:42:37+01:00</time>
      </trkpt>
      <trkpt lat="43.9231" lon="2.26241">
        <ele>275</ele>
        <time>2018-01-17T20:42:37+01:00</time>
      </trkpt>
      <trkpt lat="43.92295" lon="2.26248">
        <ele>277</ele>
      </trkpt>
      <trkpt lat="43.9228" lon="2.26249">
        <ele>280</ele>
        <time>2018-01-17T20:42:37+01:00</time>
      </trkpt>
      <trkpt lat="43.92275" lon="2.26244">
        <ele>282</ele>
        <time>2018-01-17T20:42:37+01:00</time>
      </trkpt>
      <trkpt lat="43.92265" lon="2.26243">
        <ele>284</ele>
        <time>2018-01-17T20:42:37+01:00</time>
      </trkpt>
      <trkpt lat="43.92258" lon="2.26246">
        <ele>286</ele>
        <time>2018-01-17T20:42:37+01:00</time>
      </trkpt>
      <trkpt lat="43.92256" lon="2.26255">
        <ele>286</ele>
        <time>2018-01-17T20:42:37+01:00</time>
      </trkpt>
      <trkpt lat="43.92256" lon="2.2627">
        <ele>285</ele>
        <time>2018-01-17T20:42:37+01:00</time>
      </trkpt>
      <trkpt lat="43.92263" lon="2.26295">
        <ele>283</ele>
        <time>2018-01-17T20:42:37+01:00</time>
      </trkpt>
      <trkpt lat="43.92263" lon="2.26306">
        <ele>282</ele>
        <time>2018-01-17T20:42:37+01:00</time>
      </trkpt>
      <trkpt lat="43.92256" lon="2.26326">
        <ele>284</ele>
        <time>2018-01-17T20:42:37+01:00</time>
      </trkpt>
      <trkpt lat="43.92243" lon="2.26344">
        <ele>286</ele>
        <time>2018-01-17T20:42:38+01:00</time>
      </trkpt>
      <trkpt lat="43.92242" lon="2.26354">
        <ele>285</ele>
        <time>2018-01-17T20:42:38+01:00</time>
      </trkpt>
      <trkpt lat="43.92237" lon="2.26366">
        <ele>285</ele>
        <time>2018-01-17T20:42:38+01:00</time>
      </trkpt>
      <trkpt lat="43.92221" lon="2.26383">
        <ele>286</ele>
        <time>2018-01-17T20:42:38+01:00</time>
      </trkpt>
      <trkpt lat="43.92204" lon="2.26395">
        <ele>288</ele>
        <time>2018-01-17T20:42:38+01:00</time>
      </trkpt>
      <trkpt lat="43.92199" lon="2.26403">
        <ele>287</ele>
        <time>2018-01-17T20:42:38+01:00</time>
      </trkpt>
      <trkpt lat="43.92209" lon="2.26403">
        <ele>286</ele>
        <time>2018-01-17T20:42:38+01:00</time>
      </trkpt>
      <trkpt lat="43.92228" lon="2.26398">
        <ele>283</ele>
        <time>2018-01-17T20:42:38+01:00</time>
      </trkpt>
      <trkpt lat="43.9222" lon="2.26411">
        <ele>283</ele>
        <time>2018-01-17T20:42:38+01:00</time>
      </trkpt>
      <trkpt lat="43.9221" lon="2.26435">
        <ele>284</ele>
        <time>2018-01-17T20:42:38+01:00</time>
      </trkpt>
      <trkpt lat="43.92194" lon="2.26449">
        <ele>287</ele>
        <time>2018-01-17T20:42:38+01:00</time>
      </trkpt>
      <trkpt lat="43.92191" lon="2.26457">
        <ele>287</ele>
        <time>2018-01-17T20:42:38+01:00</time>
      </trkpt>
      <trkpt lat="43.92199" lon="2.26461">
        <ele>285</ele>
        <time>2018-01-17T20:42:38+01:00</time>
      </trkpt>
      <trkpt lat="43.92216" lon="2.26464">
        <ele>282</ele>
      </trkpt>
      <trkpt lat="43.92226" lon="2.26468">
        <ele>280</ele>
        <time>2018-01-17T20:42:38+01:00</time>
      </trkpt>
      <trkpt lat="43.92238" lon="2.26469">
        <ele>277</ele>
        <time>2018-01-17T20:42:38+01:00</time>
      </trkpt>
      <trkpt lat="43.92247" lon="2.26473">
        <ele>276</ele>
        <time>2018-01-17T20:42:38+01:00</time>
      </trkpt>
      <trkpt lat="43.92252" lon="2.26482">
        <ele>274</ele>
        <time>2018-01-17T20:42:38+01:00</time>
      </trkpt>
      <trkpt lat="43.92255" lon="2.26496">
        <ele>274</ele>
        <time>2018-01-17T20:42:38+01:00</time>
      </trkpt>
      <trkpt lat="43.92255" lon="2.2651">
        <ele>274</ele>
        <time>2018-01-17T20:42:38+01:00</time>
      </trkpt>
      <trkpt lat="43.92253" lon="2.2652">
        <ele>275</ele>
        <time>2018-01-17T20:42:38+01:00</time>
      </trkpt>
      <trkpt lat="43.92256" lon="2.26545">
        <ele>277</ele>
        <time>2018-01-17T20:42:38+01:00</time>
      </trkpt>
      <trkpt lat="43.92255" lon="2.26571">
        <ele>279</ele>
        <time>2018-01-17T20:42:38+01:00</time>
      </trkpt>
      <trkpt lat="43.92252" lon="2.26581">
        <ele>280</ele>
        <time>2018-01-17T20:42:38+01:00</time>
      </trkpt>
      <trkpt lat="43.92251" lon="2.26593">
        <ele>280</ele>
        <time>2018-01-17T20:42:38+01:00</time>
      </trkpt>
      <trkpt lat="43.92239" lon="2.26623">
        <ele>284</ele>
        <time>2018-01-17T20:42:38+01:00</time>
      </trkpt>
      <trkpt lat="43.92229" lon="2.26644">
        <ele>289</ele>
        <time>2018-01-17T20:42:38+01:00</time>
      </trkpt>
      <trkpt lat="43.92225" lon="2.26655">
        <ele>290</ele>
        <time>2018-01-17T20:42:38+01:00</time>
      </trkpt>
      <trkpt lat="43.92214" lon="2.26668">
        <ele>295</ele>
      </trkpt>
      <trkpt lat="43.92208" lon="2.26689">
        <ele>297</ele>
        <time>2018-01-17T20:42:38+01:00</time>
      </trkpt>
      <trkpt lat="43.92205" lon="2.26711">
        <ele>297</ele>
        <time>2018-01-17T20:42:38+01:00</time>
      </trkpt>
      <trkpt lat="43.92198" lon="2.26732">
        <ele>299</ele>
        <time>2018-01-17T20:42:38+01:00</time>
      </trkpt>
      <trkpt lat="43.92191" lon="2.26723">
        <ele>301</ele>
        <time>2018-01-17T20:42:38+01:00</time>
      </trkpt>
      <trkpt lat="43.92185" lon="2.26698">
        <ele>304</ele>
        <time>2018-01-17T20:42:38+01:00</time>
      </trkpt>
      <trkpt lat="43.92185" lon="2.26687">
        <ele>305</ele>
        <time>2018-01-17T20:42:38+01:00</time>
      </trkpt>
      <trkpt lat="43.9218" lon="2.26665">
        <ele>307</ele>
      </trkpt>
      <trkpt lat="43.92173" lon="2.26646">
        <ele>308</ele>
        <time>2018-01-17T20:42:38+01:00</time>
      </trkpt>
      <trkpt lat="43.92169" lon="2.26636">
        <ele>309</ele>
        <time>2018-01-17T20:42:38+01:00</time>
      </trkpt>
      <trkpt lat="43.92163" lon="2.26629">
        <ele>309</ele>
        <time>2018-01-17T20:42:38+01:00</time>
      </trkpt>
      <trkpt lat="43.92158" lon="2.26628">
        <ele>309</ele>
        <time>2018-01-17T20:42:38+01:00</time>
      </trkpt>
      <trkpt lat="43.92157" lon="2.26633">
        <ele>310</ele>
        <time>2018-01-17T20:42:38+01:00</time>
      </trkpt>
      <trkpt lat="43.92142" lon="2.26639">
        <ele>311</ele>
      </trkpt>
      <trkpt lat="43.92124" lon="2.26652">
        <ele>313</ele>
        <time>2018-01-17T20:42:38+01:00</time>
      </trkpt>
      <trkpt lat="43.92111" lon="2.26678">
        <ele>315</ele>
        <time>2018-01-17T20:42:38+01:00</time>
      </trkpt>
      <trkpt lat="43.92097" lon="2.26692">
        <ele>316</ele>
        <time>2018-01-17T20:42:38+01:00</time>
      </trkpt>
      <trkpt lat="43.92085" lon="2.26711">
        <ele>319</ele>
        <time>2018-01-17T20:42:38+01:00</time>
      </trkpt>
      <trkpt lat="43.9207" lon="2.26743">
        <ele>320</ele>
        <time>2018-01-17T20:42:38+01:00</time>
      </trkpt>
      <trkpt lat="43.92065" lon="2.26755">
        <ele>320</ele>
        <time>2018-01-17T20:42:38+01:00</time>
      </trkpt>
      <trkpt lat="43.92053" lon="2.26773">
        <ele>320</ele>
        <time>2018-01-17T20:42:38+01:00</time>
      </trkpt>
      <trkpt lat="43.92046" lon="2.26777">
        <ele>320</ele>
        <time>2018-01-17T20:42:38+01:00</time>
      </trkpt>
      <trkpt lat="43.92024" lon="2.26806">
        <ele>321</ele>
        <time>2018-01-17T20:42:38+01:00</time>
      </trkpt>
      <trkpt lat="43.92016" lon="2.26812">
        <ele>322</ele>
        <time>2018-01-17T20:42:38+01:00</time>
      </trkpt>
      <trkpt lat="43.92004" lon="2.26823">
        <ele>323</ele>
      </trkpt>
      <trkpt lat="43.91991" lon="2.26843">
        <ele>323</ele>
        <time>2018-01-17T20:42:38+01:00</time>
      </trkpt>
      <trkpt lat="43.91971" lon="2.26866">
        <ele>321</ele>
        <time>2018-01-17T20:42:38+01:00</time>
      </trkpt>
      <trkpt lat="43.91955" lon="2.26884">
        <ele>322</ele>
      </trkpt>
      <trkpt lat="43.91935" lon="2.26908">
        <ele>324</ele>
      </trkpt>
      <trkpt lat="43.91922" lon="2.26927">
        <ele>325</ele>
        <time>2018-01-17T20:42:38+01:00</time>
      </trkpt>
      <trkpt lat="43.91901" lon="2.2695">
        <ele>325</ele>
      </trkpt>
      <trkpt lat="43.91884" lon="2.26965">
        <ele>325</ele>
      </trkpt>
      <trkpt lat="43.9187" lon="2.26985">
        <ele>326</ele>
      </trkpt>
      <trkpt lat="43.91841" lon="2.27017">
        <ele>326</ele>
      </trkpt>
      <trkpt lat="43.91821" lon="2.27037">
        <ele>326</ele>
      </trkpt>
      <trkpt lat="43.91807" lon="2.27058">
        <ele>326</ele>
        <time>2018-01-17T20:42:38+01:00</time>
      </trkpt>
      <trkpt lat="43.91801" lon="2.27066">
        <ele>326</ele>
        <time>2018-01-17T20:42:38+01:00</time>
      </trkpt>
      <trkpt lat="43.91792" lon="2.2707">
        <ele>327</ele>
      </trkpt>
      <trkpt lat="43.91784" lon="2.27069">
        <ele>327</ele>
        <time>2018-01-17T20:42:38+01:00</time>
      </trkpt>
      <trkpt lat="43.91758" lon="2.27008">
        <ele>331</ele>
        <time>2018-01-17T20:42:38+01:00</time>
      </trkpt>
      <trkpt lat="43.91749" lon="2.26984">
        <ele>332</ele>
        <time>2018-01-17T20:42:38+01:00</time>
      </trkpt>
      <trkpt lat="43.91732" lon="2.2694">
        <ele>331</ele>
      </trkpt>
      <trkpt lat="43.91707" lon="2.26882">
        <ele>330</ele>
        <time>2018-01-17T20:42:38+01:00</time>
      </trkpt>
      <trkpt lat="43.91711" lon="2.26871">
        <ele>330</ele>
        <time>2018-01-17T20:42:38+01:00</time>
      </trkpt>
      <trkpt lat="43.91716" lon="2.26855">
        <ele>330</ele>
        <time>2018-01-17T20:42:38+01:00</time>
      </trkpt>
    </trkseg>
  </trk>
</gpx>